Starlink 35942

operational
NORAD ID: 66926 Int'l Des: 2025-286 Owner: SPXS Country: US Constellation: starlink
LEOCIRCULAR

About Starlink 35942

Description loading...

Live Position

Loading 3D Globe...

Upcoming Passes

Altitude History

Altitude vs Time

uPlot chart will show altitude changes over time

Two-Line Element Set

1 66926U 25286B 26041.24838126 .00070937 00000-0 17645-2 0 9990
2 66926 53.1592 126.0403 0001276 89.5228 270.5923 15.39662594 11215
Epoch: Feb 10, 2026 • Age: 10 hours

Current Status

Altitude 451.0 km
Velocity 7.65 km/s
Sub-Earth Point 45.85°N, 123.94°W
Launch Date Dec 7, 2025
Age 0.1 years
Type internet

Technical Details

Classification Payload
Mass 575.00 kg
Dry Mass 530.00 kg
Total Mass 575.00 kg
Length 0.30 m
Diameter 4.10 m
Span 29.00 m
Shape Box + pan
Manufacturer SPXS
Bus Type Starlink V2MO
Phase Status In Orbit
Owner/State SPXS/US

Large Constellations

Loading constellations...